GW0191 Weather Reports


time (UTC)temp
C
wind
direction
speed
KPH
gust
KPH
rain 1hr
cm
rain 24hr
cm
rain mn
cm
humidity
%
barometer
mb
20260506110149 23 184 0.0 3.2 0.00 0.00 0.00 93 1012.1
20260506105645 23 257 0.0 0.0 0.00 0.00 0.00 93 1011.9
20260506105142 23 146 1.6 1.6 0.00 0.00 0.00 93 1012.0
20260506104640 23 258 0.0 0.0 0.00 0.00 0.00 93 1012.0
20260506104137 23 164 0.0 1.6 0.00 0.00 0.00 92 1011.9
20260506103635 23 284 0.0 1.6 0.00 0.00 0.00 92 1011.9
20260506103131 23 262 0.0 0.0 0.00 0.00 0.00 92 1011.9
20260506102630 24 279 0.0 0.0 0.00 0.00 0.00 92 1012.0
20260506102127 24 193 0.0 3.2 0.00 0.00 0.00 92 1011.8
20260506101623 24 282 1.6 1.6 0.00 0.00 0.00 92 1012.0
20260506101120 24 214 1.6 4.8 0.00 0.00 0.00 92 1011.8
20260506100619 24 188 4.8 8.0 0.00 0.00 0.00 92 1011.9
20260506100116 24 200 0.0 4.8 0.00 0.00 0.00 91 1012.0
20260506095615 24 301 0.0 1.6 0.00 0.00 0.00 91 1011.9
20260506095111 24 215 3.2 4.8 0.00 0.00 0.00 91 1011.8
20260506094609 24 210 0.0 4.8 0.00 0.00 0.00 91 1011.8
20260506094106 24 262 1.6 3.2 0.00 0.00 0.00 91 1011.6
20260506093604 24 161 1.6 4.8 0.00 0.00 0.00 91 1011.4
20260506093101 24 170 0.0 1.6 0.00 0.00 0.00 90 1011.5
20260506092559 24 144 3.2 8.0 0.00 0.00 0.00 90 1011.3
20260506092056 24 153 4.8 8.0 0.00 0.00 0.00 90 1011.4
20260506091554 25 131 1.6 3.2 0.00 0.00 0.00 90 1011.6
20260506091051 25 293 0.0 3.2 0.00 0.00 0.00 90 1011.5
20260506090549 25 165 3.2 4.8 0.00 0.00 0.00 90 1011.5
20260506090045 25 141 1.6 3.2 0.00 0.00 0.00 90 1011.6
20260506085542 25 241 1.6 4.8 0.00 0.00 0.00 90 1011.7
20260506085038 25 156 4.8 8.0 0.00 0.00 0.00 90 1011.6
20260506084536 25 185 4.8 4.8 0.00 0.00 0.00 90 1011.5
20260506084031 25 355 1.6 3.2 0.00 0.00 0.00 90 1011.6
20260506083529 25 238 1.6 3.2 0.00 0.00 0.00 90 1011.9
20260506083026 25 187 1.6 4.8 0.00 0.00 0.00 89 1011.8
20260506082523 25 259 3.2 8.0 0.00 0.00 0.00 89 1011.8
20260506082019 25 229 1.6 4.8 0.00 0.00 0.00 89 1011.9
20260506081517 25 296 0.0 1.6 0.00 0.00 0.00 89 1012.1
20260506081014 25 212 4.8 4.8 0.00 0.00 0.00 89 1012.0
20260506080511 25 205 3.2 4.8 0.00 0.00 0.00 89 1012.2
20260506073455 25 278 1.6 1.6 0.00 0.00 0.00 89 1012.2
20260506072952 25 294 0.0 1.6 0.00 0.00 0.00 89 1012.4
20260506072449 25 304 0.0 1.6 0.00 0.00 0.00 89 1012.5
20260506071947 25 4 0.0 3.2 0.00 0.00 0.00 89 1012.4
20260506071445 25 199 1.6 3.2 0.00 0.00 0.00 89 1012.5
20260506070941 25 306 0.0 3.2 0.00 0.00 0.00 89 1012.4
20260506070438 25 196 1.6 4.8 0.00 0.00 0.00 89 1012.4
20260506062416 25 198 3.2 3.2 0.00 0.00 0.00 88 1012.6
20260506061912 25 180 1.6 4.8 0.00 0.00 0.00 89 1012.6
20260506061409 25 220 1.6 4.8 0.00 0.00 0.00 89 1012.8
20260506060906 25 347 1.6 1.6 0.00 0.00 0.00 89 1012.7
20260506060404 25 198 1.6 8.0 0.00 0.00 0.00 89 1012.8
20260506051336 25 141 3.2 3.2 0.00 0.00 0.00 88 1012.8
20260506050834 25 215 1.6 3.2 0.00 0.00 0.00 88 1012.9
20260506050331 25 297 3.2 9.7 0.00 0.00 0.00 88 1013.0
20260506044821 25 288 1.6 3.2 0.00 0.00 0.00 87 1012.7
20260506044319 25 152 3.2 8.0 0.00 0.00 0.00 87 1012.8
20260506043816 25 220 1.6 4.8 0.00 0.00 0.00 87 1012.8
20260506043314 25 153 3.2 4.8 0.00 0.00 0.00 87 1012.9
20260506042812 25 145 1.6 3.2 0.00 0.00 0.00 87 1012.8
20260506042311 25 252 0.0 3.2 0.00 0.00 0.00 86 1012.5
20260506041809 25 309 3.2 12.9 0.00 0.00 0.00 86 1012.6
20260506041305 25 327 1.6 8.0 0.00 0.00 0.00 86 1012.8
20260506040802 25 122 4.8 9.7 0.00 0.00 0.00 86 1012.5
20260506040259 25 252 1.6 8.0 0.00 0.00 0.00 86 1012.5
20260506035756 25 131 1.6 4.8 0.00 0.00 0.00 86 1012.4
20260506035253 25 71 1.6 8.0 0.00 0.00 0.00 86 1012.3
20260506034750 25 252 1.6 9.7 0.00 0.00 0.00 86 1012.1
20260506034248 25 305 1.6 4.8 0.00 0.00 0.00 86 1012.2
20260506033744 25 311 1.6 3.2 0.00 0.00 0.00 85 1012.3
20260506033241 25 161 1.6 4.8 0.00 0.00 0.00 85 1012.5
20260506032738 25 192 3.2 4.8 0.00 0.00 0.00 85 1012.3
20260506032235 25 159 3.2 4.8 0.00 0.00 0.00 85 1012.1
20260506031732 25 121 1.6 4.8 0.00 0.00 0.00 85 1012.0
20260506031230 25 200 3.2 9.7 0.00 0.00 0.00 85 1011.9
20260506030728 26 309 1.6 4.8 0.00 0.00 0.00 85 1012.0
20260506030225 26 228 1.6 3.2 0.00 0.00 0.00 85 1012.1
20260506025721 26 214 3.2 9.7 0.00 0.00 0.00 85 1012.1
20260506025218 26 215 3.2 4.8 0.00 0.00 0.00 84 1011.8
20260506024715 26 164 4.8 4.8 0.00 0.00 0.00 84 1011.8
20260506024211 26 121 3.2 4.8 0.00 0.00 0.00 85 1011.7
20260506023708 26 230 0.0 3.2 0.00 0.00 0.00 84 1011.6
20260506023205 26 124 3.2 4.8 0.00 0.00 0.00 84 1011.4
20260506022702 26 211 3.2 4.8 0.00 0.00 0.00 84 1011.3
20260506022159 26 189 0.0 3.2 0.00 0.00 0.00 84 1011.3
20260506021657 26 207 4.8 8.0 0.00 0.00 0.00 84 1011.5
20260506021154 26 264 4.8 8.0 0.00 0.00 0.00 84 1011.2
20260506020651 26 210 1.6 3.2 0.00 0.00 0.00 84 1011.2
20260506020149 26 295 1.6 1.6 0.00 0.00 0.00 83 1011.3
20260506015646 26 175 1.6 4.8 0.00 0.00 0.00 83 1011.2
20260506015143 26 150 3.2 8.0 0.00 0.00 0.00 83 1011.2
20260506014635 26 188 3.2 4.8 0.00 0.00 0.00 83 1010.9
20260506014130 26 112 3.2 4.8 0.00 0.00 0.00 83 1010.9
20260506013629 26 164 1.6 4.8 0.00 0.00 0.00 83 1011.0
20260506013125 26 160 1.6 9.7 0.00 0.00 0.00 82 1010.8
20260506012621 26 195 4.8 8.0 0.00 0.00 0.00 82 1010.8
20260506012118 26 220 1.6 9.7 0.00 0.00 0.00 82 1010.6
20260506011615 26 240 1.6 4.8 0.00 0.00 0.00 82 1010.5
20260506011111 26 238 4.8 4.8 0.00 0.00 0.00 82 1010.4
20260506010606 26 341 1.6 3.2 0.00 0.00 0.00 82 1010.3
20260506005559 26 217 0.0 8.0 0.00 0.00 0.00 81 1010.3
20260506005055 26 264 1.6 1.6 0.00 0.00 0.00 81 1010.4
20260506004552 26 303 0.0 8.0 0.00 0.00 0.00 81 1010.3
20260506004049 26 343 4.8 8.0 0.00 0.00 0.00 81 1010.5
20260506003545 27 15 0.0 1.6 0.00 0.00 0.00 81 1010.3
20260506003042 27 227 4.8 8.0 0.00 0.00 0.00 81 1010.2
20260506002538 27 159 1.6 8.0 0.00 0.00 0.00 81 1010.4
20260506002034 27 173 3.2 11.3 0.00 0.00 0.00 81 1010.1
20260506001530 27 213 1.6 3.2 0.00 0.00 0.00 81 1010.0
20260506001028 27 68 3.2 4.8 0.00 0.00 0.00 81 1010.1
20260506000525 27 198 1.6 4.8 0.00 0.00 0.00 81 1010.2
20260506000023 27 159 4.8 8.0 0.00 0.00 0.00 81 1010.3
20260505235521 27 295 1.6 8.0 0.00 0.00 0.00 81 1010.1
20260505235017 27 150 1.6 4.8 0.00 0.00 0.00 81 1009.9
20260505234514 27 134 3.2 4.8 0.00 0.00 0.00 80 1010.0
20260505234011 27 291 0.0 4.8 0.00 0.00 0.00 79 1009.9
20260505233508 27 35 0.0 3.2 0.00 0.00 0.00 79 1010.0
20260505233006 27 195 1.6 3.2 0.00 0.00 0.00 79 1010.0
20260505232503 27 110 1.6 8.0 0.00 0.00 0.00 79 1010.1
20260505232001 27 89 4.8 11.3 0.00 0.00 0.00 79 1009.9
20260505231457 27 285 1.6 3.2 0.00 0.00 0.00 79 1009.9
20260505230956 28 140 3.2 4.8 0.00 0.00 0.00 78 1010.0
20260505230453 28 178 4.8 4.8 0.00 0.00 0.00 78 1010.0
20260505225949 28 10 1.6 3.2 0.00 0.00 0.00 78 1010.2
20260505225446 28 220 1.6 3.2 0.00 0.00 0.00 77 1010.2
20260505224942 28 212 6.4 9.7 0.00 0.00 0.00 77 1010.1
20260505224439 28 302 1.6 9.7 0.00 0.00 0.00 76 1009.9
20260505223937 28 193 6.4 9.7 0.00 0.00 0.00 76 1010.0
20260505223433 28 109 1.6 8.0 0.00 0.00 0.00 76 1010.0
20260505222930 28 178 4.8 8.0 0.00 0.00 0.00 75 1009.9
20260505222426 28 277 4.8 11.3 0.00 0.00 0.00 75 1010.1
20260505221922 28 290 4.8 8.0 0.00 0.00 0.00 75 1010.0
20260505221420 28 224 1.6 8.0 0.00 0.00 0.00 76 1010.3
20260505220917 28 188 6.4 9.7 0.00 0.00 0.00 75 1010.3
20260505220413 28 169 4.8 16.1 0.00 0.00 0.00 75 1010.3
20260505215911 28 258 3.2 3.2 0.00 0.00 0.00 76 1010.2
20260505215409 28 138 1.6 9.7 0.00 0.00 0.00 76 1010.4
20260505214907 28 281 1.6 11.3 0.00 0.00 0.00 76 1010.5
20260505214404 28 198 4.8 14.5 0.00 0.00 0.00 76 1010.4
20260505213901 28 229 3.2 12.9 0.00 0.00 0.00 76 1010.8
20260505213359 28 302 0.0 4.8 0.00 0.00 0.00 77 1010.7
20260505212855 28 287 0.0 9.7 0.00 0.00 0.00 76 1010.7
20260505212352 28 264 4.8 16.1 0.00 0.00 0.00 75 1010.6
20260505211848 28 117 4.8 12.9 0.00 0.00 0.00 76 1010.9
20260505211346 28 192 6.4 8.0 0.00 0.00 0.00 76 1010.9
20260505210842 28 164 4.8 4.8 0.00 0.00 0.00 76 1010.9
20260505210339 28 267 3.2 9.7 0.00 0.00 0.00 76 1010.8
20260505205836 29 239 1.6 9.7 0.00 0.00 0.00 74 1011.0
20260505205334 29 131 3.2 8.0 0.00 0.00 0.00 74 1010.8
20260505204831 30 222 4.8 11.3 0.00 0.00 0.00 73 1011.1
20260505204329 30 258 3.2 8.0 0.00 0.00 0.00 74 1011.0
20260505203826 29 215 3.2 4.8 0.00 0.00 0.00 74 1011.0
20260505203322 29 175 1.6 11.3 0.00 0.00 0.00 75 1011.1
20260505202818 29 36 8.0 14.5 0.00 0.00 0.00 75 1011.1
20260505202315 29 325 1.6 4.8 0.00 0.00 0.00 75 1011.3
20260505201811 29 326 3.2 8.0 0.00 0.00 0.00 75 1011.5
20260505201309 28 146 3.2 12.9 0.00 0.00 0.00 76 1011.4
20260505200807 28 309 1.6 9.7 0.00 0.00 0.00 77 1011.5
20260505200304 28 195 3.2 3.2 0.00 0.00 0.00 77 1011.6
20260505195759 28 202 4.8 8.0 0.00 0.00 0.00 77 1011.6
20260505195257 28 154 3.2 8.0 0.00 0.00 0.00 76 1011.8
20260505194754 28 348 1.6 11.3 0.00 0.00 0.00 76 1011.8
20260505194251 28 176 3.2 9.7 0.00 0.00 0.00 76 1011.9
20260505193746 28 7 3.2 3.2 0.00 0.00 0.00 76 1012.0
20260505193244 28 191 3.2 11.3 0.00 0.00 0.00 76 1012.0
20260505192742 28 194 4.8 8.0 0.00 0.00 0.00 76 1012.0
20260505192239 28 181 3.2 4.8 0.00 0.00 0.00 77 1012.0
20260505191737 28 200 3.2 8.0 0.00 0.00 0.00 77 1012.1
20260505191236 28 308 3.2 9.7 0.00 0.00 0.00 78 1012.2
20260505190731 27 16 0.0 8.0 0.00 0.00 0.00 80 1012.2
20260505190232 27 189 1.6 3.2 0.00 0.00 0.00 80 1012.3
20260505185728 27 291 1.6 11.3 0.00 0.00 0.00 79 1012.1
20260505185225 27 176 6.4 12.9 0.00 0.00 0.00 78 1012.4
20260505184721 28 128 4.8 8.0 0.00 0.00 0.00 78 1012.3
20260505184218 28 294 3.2 3.2 0.00 0.00 0.00 77 1012.4
20260505183715 28 226 1.6 8.0 0.00 0.00 0.00 78 1012.4
20260505183213 28 35 3.2 8.0 0.00 0.00 0.00 78 1012.3
20260505182708 28 296 1.6 1.6 0.00 0.00 0.00 79 1012.4
20260505182206 27 123 0.0 8.0 0.00 0.00 0.00 79 1012.4
20260505181702 27 136 3.2 14.5 0.00 0.00 0.00 79 1012.4
20260505181200 27 316 1.6 8.0 0.00 0.00 0.00 80 1012.5
20260505180656 27 200 6.4 12.9 0.00 0.00 0.00 80 1012.6
20260505180153 27 150 4.8 16.1 0.00 0.00 0.00 80 1012.6
20260505175649 27 280 1.6 9.7 0.00 0.00 0.00 81 1012.6
20260505175145 26 257 3.2 3.2 0.00 0.00 0.00 81 1012.6
20260505174642 26 211 4.8 4.8 0.00 0.00 0.00 81 1012.8
20260505174138 26 123 3.2 8.0 0.00 0.00 0.00 82 1012.6
20260505173635 26 190 4.8 9.7 0.00 0.00 0.00 81 1012.8
20260505173132 27 148 0.0 4.8 0.00 0.00 0.00 80 1012.9
20260505172630 27 243 1.6 3.2 0.00 0.00 0.00 80 1012.8
20260505172126 27 319 1.6 4.8 0.00 0.00 0.00 80 1012.9
20260505171621 27 121 4.8 11.3 0.00 0.00 0.00 80 1012.9
20260505171118 26 115 1.6 11.3 0.00 0.00 0.00 81 1012.9
20260505170615 26 344 1.6 3.2 0.00 0.00 0.00 81 1013.1
20260505170111 26 271 3.2 14.5 0.00 0.00 0.00 81 1013.0
20260505165606 26 189 0.0 3.2 0.00 0.00 0.00 82 1013.3
20260505165103 26 147 1.6 12.9 0.00 0.00 0.00 82 1013.1
20260505164558 26 4 1.6 3.2 0.00 0.00 0.00 83 1013.2
20260505164056 26 191 9.7 12.9 0.00 0.00 0.00 83 1013.1
20260505163555 26 270 3.2 9.7 0.00 0.00 0.00 83 1013.0
20260505163051 25 306 1.6 12.9 0.00 0.00 0.00 84 1013.1
20260505162549 25 187 9.7 11.3 0.00 0.00 0.00 83 1013.2
20260505162047 25 163 3.2 8.0 0.00 0.00 0.00 83 1012.7
20260505161544 26 125 3.2 8.0 0.00 0.00 0.00 83 1012.8
20260505161041 26 246 3.2 9.7 0.00 0.00 0.00 82 1013.0
20260505160539 26 342 3.2 11.3 0.00 0.00 0.00 83 1013.0
20260505153015 25 141 1.6 11.3 0.00 0.00 0.00 84 1012.8
20260505152512 25 137 1.6 4.8 0.00 0.00 0.00 84 1012.9
20260505152008 25 186 1.6 9.7 0.00 0.00 0.00 84 1012.7
20260505151503 25 238 1.6 1.6 0.00 0.00 0.00 84 1012.8
20260505151000 25 169 3.2 4.8 0.00 0.00 0.00 84 1012.8
20260505150457 25 287 1.6 9.7 0.00 0.00 0.00 84 1012.9
20260505140427 24 303 3.2 3.2 0.00 0.00 0.00 85 1012.3
20260505124841 23 186 0.0 1.6 0.00 0.00 0.00 88 1011.8
20260505124337 22 241 0.0 4.8 0.00 0.00 0.00 89 1012.2
20260505123833 22 286 0.0 3.2 0.00 0.00 0.00 89 1012.2
20260505123330 22 185 1.6 1.6 0.00 0.00 0.00 89 1012.3
20260505122826 22 182 1.6 3.2 0.00 0.00 0.00 89 1012.3
20260505122324 22 157 0.0 3.2 0.00 0.00 0.00 89 1012.3
20260505121820 22 290 0.0 3.2 0.00 0.00 0.00 90 1012.4
20260505121318 22 162 1.6 1.6 0.00 0.00 0.00 90 1012.3
20260505120813 22 157 0.0 3.2 0.00 0.00 0.00 90 1012.1
20260505120309 22 290 1.6 4.8 0.00 0.00 0.00 90 1012.1
20260505115808 22 191 1.6 3.2 0.00 0.00 0.00 90 1012.0
20260505115306 22 235 1.6 3.2 0.00 0.00 0.00 90 1011.6
20260505114803 22 204 1.6 3.2 0.00 0.00 0.00 90 1011.8
20260505114300 22 180 1.6 4.8 0.00 0.00 0.00 89 1011.9
20260505113756 22 290 0.0 3.2 0.00 0.00 0.00 89 1012.1
20260505113253 22 298 0.0 8.0 0.00 0.00 0.00 89 1012.1
20260505112748 22 178 0.0 1.6 0.00 0.00 0.00 89 1012.1
20260505112246 22 303 0.0 3.2 0.00 0.00 0.00 89 1011.8
20260505111741 22 229 0.0 1.6 0.00 0.00 0.00 89 1012.0
20260505111237 22 143 1.6 1.6 0.00 0.00 0.00 89 1011.8
20260505110733 22 180 1.6 3.2 0.00 0.00 0.00 89 1011.9